Location: ????????
(54.9045°N, 39.1041°E)
Time: 11:32:36
(UTC+00:00)

Cosmos 1371 Rocket - Pass Details

Date: 14 April 2024
Orbit: 751 x 787 km, 74.0° (Epoch: 22 May)

Event Time Altitude Azimuth Distance (km) Brightness Sun altitude
Rises 01:12:59 0° 330° (NNW) 3,232 7.3 -9.8°
Reaches altitude 10° 01:15:22 10° 327° (NNW) 2,307 6.5 -9.6°
Maximum altitude 01:20:29 57° 250° (WSW) 908 4.1 -8.9°
Drops below altitude 10° 01:25:37 10° 173° (S) 2,314 6.3 -8.3°
Sets 01:28:01 0° 169° (S) 3,243 7.1 -8.0°
